Terminal Aerodrome Forecast
Issued by NWS

Home | Current Version | Previous Version | Text Only | Print | Product List | Glossary On
Versions: 1 2 3 4 5 6 7 8 9 10 11 12 13 14 15 16 17 18 19 20 21 22 23 24 25 26 27
862
FTUS46 KSEW 212337
TAFSEA
TAF
KSEA 212337Z 2200/2306 26006KT P6SM FEW040 SCT090 BKN150
     FM220200 35005KT P6SM SCT080 BKN150
     FM220900 15004KT P6SM BKN050 OVC080
     FM221400 18005KT P6SM SCT030 BKN040 OVC060
     FM222100 23006KT P6SM SCT040 BKN060
     FM230100 35006KT P6SM SCT035 BKN045=

USA.gov is the U.S. government's official web portal to all federal, state and local government web resources and services.